Tracking 17560 objects as of 11-February-2016
HD Live streaming from Space Station
objects crossing your sky now

THORAD AGENA D DEB

Track THORAD AGENA D DEB now!
10-day predictions


NORAD ID: 4171
Int'l Code: 1969-082AP
Perigee: 768.8 km
Apogee: 824.2 km
Inclination: 70.1 °
Period: 100.6 minutes
Semi major axis: 7167 km
RCS: 0.0461 m2 (small)
Launch date: September 30, 1969
Source: United States (US)
Launch site: AIR FORCE WESTERN TEST RANGE (AFWTR)

Note: This is SATELLITE DEBRIS
Your satellite tracking list
Your tracking list is empty





NASA's NSSDC Master Catalog

Two Line Element Set (TLE):
1 04171U 69082AP  16041.53870465  .00000463  00000-0  19709-3 0  9990
2 04171  70.0784  85.7301 0038669 353.0387   7.0194 14.3071728398336
Source of the keplerian elements: AFSPC

N2YO: 860